Location: D�nning
(49.2479°N, 12.8491°E)
Time: 02:51:26
(UTC+00:00)

Cosmos 2082 Rocket - Pass Details

Date: 18 September 2020
Orbit: 834 x 853 km, 71.0° (Epoch: 24 October)

Event Time Altitude Azimuth Distance (km) Brightness Sun altitude
Rises 18:55:14 0° 335° (NNW) 3,394 6.1 -16.8°
Reaches altitude 10° 18:58:37 10° 355° (N) 2,456 5.0 -17.3°
Maximum altitude 19:02:13 17° 35° (NE) 2,001 4.0 -17.8°
Enters shadow 19:04:23 14° 62° (ENE) 2,177 4.0 -18.2°
